Weather History for KPSX - September, 2012

Change the Weather History Date:

Saturday, September 8, 2012

  Actual Average Record
Temperature  
Mean Temperature 87 °F -  
Max Temperature 95 °F 89 °F 96 °F (1951)
Min Temperature 77 °F 73 °F 61 °F (1950)
Cooling Degree Days 22    
Growing Degree Days 37 (Base 50)    
Moisture  
Dew Point 73 °F    
Average Humidity 69    
Maximum Humidity 90    
Minimum Humidity 47    
Precipitation  
Precipitation 0.00 in - - ()
Sea Level Pressure  
Sea Level Pressure 29.91 in    
Wind  
Wind Speed 11 mph (WNW)    
Max Wind Speed 18 mph    
Max Gust Speed 25 mph    
Visibility 10 miles    
Events      
Averages and records for this station are not official NWS values.
T = Trace of Precipitation, MM = Missing Value Source: NWS Daily Summary

Daily Weather History Graph

Daily Weather History Graph

Search for Another Location

Airport or City:

Trip Planner

Search our weather history database for the weather conditions in past years. The results will help you decide how hot, cold, wet, or windy it might be!

Date:

Astronomy

Sep. 08, 2012 Rise Set
Actual Time 7:06 AM CDT 7:37 PM CDT
Civil Twilight 6:42 AM CDT 8:01 PM CDT
Nautical Twilight 6:15 AM CDT 8:29 PM CDT
Astronomical Twilight 5:46 AM CDT 8:57 PM CDT
Moon 12:10 AM CDT (9/8) 2:14 PM CDT (9/8)
Length of Visible Light 13h 18m
Length of Day
12h 30m
Waning Gibbous, 48% of the Moon is Illuminated
Sep 8
Waning Gibbous
Sep 15
New
Sep 22
First Quarter
Sep 29
Full
Oct 8
Last Quarter

Hourly Weather History & Observations

Time (CDT) Temp. Heat Index Dew Point Humidity Pressure Visibility Wind Dir Wind Speed Gust Speed Precip Events Conditions
12:53 AM 84.9 °F 94.1 °F 75.9 °F 74% 29.85 in 10.0 mi South 12.7 mph - N/A   Partly Cloudy
1:53 AM 84.9 °F 94.1 °F 75.9 °F 74% 29.84 in 10.0 mi South 13.8 mph - N/A   Partly Cloudy
2:53 AM 84.9 °F 95.3 °F 77.0 °F 77% 29.84 in 10.0 mi SSW 11.5 mph - N/A   Partly Cloudy
3:53 AM 84.9 °F 94.1 °F 75.9 °F 74% 29.84 in 10.0 mi SSW 12.7 mph - N/A   Partly Cloudy
4:18 AM 84.2 °F 94.1 °F 77.0 °F 79% 29.83 in 10.0 mi SSW 10.4 mph - N/A   Mostly Cloudy
4:31 AM 84.2 °F 92.3 °F 75.2 °F 74% 29.83 in 10.0 mi SW 11.5 mph - N/A   Scattered Clouds
4:53 AM 84.0 °F 92.6 °F 75.9 °F 76% 29.83 in 10.0 mi SW 10.4 mph - N/A   Partly Cloudy
5:53 AM 82.9 °F 90.8 °F 75.9 °F 79% 29.86 in 10.0 mi SW 8.1 mph - N/A   Scattered Clouds
6:53 AM 81.0 °F 87.9 °F 77.0 °F 88% 29.90 in 10.0 mi West 6.9 mph - N/A   Clear
7:53 AM 80.1 °F 85.8 °F 77.0 °F 90% 29.93 in 7.0 mi NNW 6.9 mph - N/A   Scattered Clouds
8:01 AM 80.6 °F 87.1 °F 77.0 °F 89% 29.94 in 7.0 mi NNW 8.1 mph - N/A   Mostly Cloudy
8:11 AM 80.6 °F 87.1 °F 77.0 °F 89% 29.94 in 7.0 mi NW 4.6 mph - N/A   Scattered Clouds
8:53 AM 82.9 °F 91.8 °F 77.0 °F 82% 29.96 in 9.0 mi WNW 10.4 mph - N/A   Scattered Clouds
9:41 AM 84.2 °F 92.3 °F 75.2 °F 74% 29.96 in 10.0 mi West 9.2 mph - N/A   Mostly Cloudy
9:53 AM 84.9 °F 93.3 °F 75.0 °F 72% 29.95 in 10.0 mi West 13.8 mph - N/A   Mostly Cloudy
10:53 AM 88.0 °F 97.5 °F 75.0 °F 65% 29.95 in 10.0 mi WSW 8.1 mph - N/A   Scattered Clouds
11:53 AM 89.1 °F 98.0 °F 73.9 °F 61% 29.95 in 10.0 mi West 6.9 mph - N/A   Mostly Cloudy
12:53 PM 90.0 °F 100.2 °F 75.0 °F 61% 29.94 in 10.0 mi NW 8.1 mph - N/A   Mostly Cloudy
1:53 PM 91.9 °F 103.2 °F 75.0 °F 58% 29.91 in 10.0 mi NW 15.0 mph - N/A   Mostly Cloudy
2:53 PM 95.0 °F 105.2 °F 73.9 °F 50% 29.90 in 10.0 mi North 12.7 mph - N/A   Mostly Cloudy
3:53 PM 93.0 °F 100.1 °F 71.1 °F 49% 29.89 in 10.0 mi North 9.2 mph - N/A   Overcast
4:53 PM 93.0 °F 99.0 °F 70.0 °F 47% 29.88 in 10.0 mi NNE 18.4 mph 25.3 mph N/A   Mostly Cloudy
5:53 PM 91.0 °F 95.2 °F 68.0 °F 47% 29.89 in 10.0 mi North 18.4 mph - N/A   Mostly Cloudy
6:53 PM 89.1 °F 92.9 °F 68.0 °F 50% 29.90 in 10.0 mi NNE 11.5 mph - N/A   Clear
7:53 PM 82.9 °F 86.5 °F 69.1 °F 63% 29.93 in 10.0 mi NNE 8.1 mph - N/A   Clear
8:53 PM 82.0 °F 84.1 °F 66.0 °F 58% 29.95 in 10.0 mi North 9.2 mph - N/A   Clear
9:53 PM 80.1 °F 82.3 °F 66.9 °F 64% 29.98 in 10.0 mi NNE 10.4 mph - N/A   Clear
10:53 PM 79.0 °F - 66.0 °F 64% 30.00 in 10.0 mi NNE 12.7 mph - N/A   Clear
11:53 PM 77.0 °F - 66.9 °F 71% 30.01 in 10.0 mi NNE 8.1 mph - N/A   Clear